Regional Weather Roundup
Issued by NWS

Home | Current Version | Previous Version | Text Only | Print | Product List | Glossary On
Versions: 1 2 3 4 5 6 7 8 9 10 11 12 13 14 15 16 17 18 19 20 21 22 23 24 25 26 27 28 29 30 31 32 33 34 35 36 37 38 39 40 41 42 43 44 45 46 47 48 49 50
000
ASUS45 KTFX 182210
RWRMT
MONTANA REGIONAL WEATHER ROUNDUP
NATIONAL WEATHER SERVICE GREAT FALLS MT
300 PM MST MON DEC 18 2017

NOTE: "FAIR" INDICATES FEW OR NO CLOUDS BELOW 12000 FEET WITH NO
SIGNIFICANT WEATHER AND/OR OBSTRUCTIONS TO VISIBILITY.

MTZ001>007-043-182300-
WEST OF THE DIVIDE

CITY           SKY/WX    TMP DP  RH WIND       PRES   REMARKS
MISSOULA       CLOUDY    41  32  70 N5        29.92R
BUTTE          CLOUDY    42  25  50 W6        29.88S
MULLAN PASS    SNOW      31  28  89 VRB6      29.88R VSB 1/4 WCI  25
ANACONDA         N/A     45  25  45 SW21G30   29.87R
DEER LODGE       N/A     45  28  53 W18G28    29.88R
EUREKA           N/A     37  32  81 MISG      29.88R
HAMILTON         N/A     46  30  53 SE13G25   29.93R
LIBBY            N/A     39  37  93 CALM      29.88R
RONAN            N/A     40  31  70 SE7       29.95R
$$

MTZ008-052>055-182300-
SOUTHWEST MONTANA

CITY           SKY/WX    TMP DP  RH WIND       PRES   REMARKS
DILLON         FAIR      41  25  53 E10       29.92R
THREE FORKS      N/A     41  27  57 SE5       29.85S
$$

MTZ009-010-012-014-046-048-049-054-182300-
EAST SLOPES AND CENTRAL MONTANA

CITY           SKY/WX    TMP DP  RH WIND       PRES   REMARKS
GREAT FALLS    CLOUDY    32  25  75 N18G32    29.81R WCI  20
MALMSTROM AFB  FAIR      34  28  77 N18G26    29.81R WCI  23
HELENA         FAIR      46  30  53 W20G29    29.81R
BOWMANS CRNR   FAIR      41  25  53 W24G32    29.78R
CHOTEAU        FOG       27  27 100 N9        29.86R VSB 1/2 WCI  17
FAIRFIELD      FLURRIES  29  24  82 N16G24    29.82R WCI  17
POWER          FLURRIES  28  25  87 N20G28    29.81R WCI  15
RAYNESFORD     PTSUNNY   44  25  47 W29G41    29.75R
ULM            FAIR      44  26  49 W14       29.78R
WHITE SULPHUR    N/A     39  28  65 NW13      29.80R WCI  32
$$

MTZ011-013-016-021-045-047-050-051-182300-
NORTH CENTRAL MONTANA

CITY           SKY/WX    TMP DP  RH WIND       PRES   REMARKS
HAVRE          SNOW      30  29  96 W6        29.85R VSB 1/4 WCI  24
CHINOOK          N/A     30  30 100 W5        29.83R VSB 1/2
DENTON         LGT RAIN  36  26  66 NW26G38   29.71R WCI  24
GEYSER         PTSUNNY   45  25  45 W32G46    29.72R
GRASS RANGE    PTSUNNY   47  25  41 W29       29.67R
STANFORD       PTSUNNY   45  24  43 NW28G43   29.72R
WINIFRED       LGT RAIN  38  27  64 N22G28    29.72R WCI  28
$$

MTZ017>020-022>027-061-062-182300-
NORTHEAST MONTANA

CITY           SKY/WX    TMP DP  RH WIND       PRES   REMARKS
GLASGOW        CLOUDY    33  28  81 N20       29.73R WCI  21
JORDAN           N/A     38  34  85 N18       29.70R WCI  28
WOLF POINT     CLOUDY    37  33  85 N9        29.71R WCI  30
PLENTYWOOD       N/A     34  27  75 W12G17    29.66R WCI  25
POPLAR           N/A     36  30  80 NW9       29.71R WCI  29
SCOBEY           N/A     32  21  64 W12       29.68  WCI  23
$$

MTZ028>42-056>058-182300-
SOUTHCENTRAL AND SOUTHEAST MONTANA

CITY           SKY/WX    TMP DP  RH WIND       PRES   REMARKS
BILLINGS       PTSUNNY   42  27  55 W20       29.75R
LIVINGSTON     CLOUDY    42  24  49 SW32G47   29.80R
MILES CITY     CLOUDY    52  30  43 W20G25    29.65R
BIG TIMBER     SUNNY     45  23  42 W33G46    29.73S
FORSYTH          N/A     54  27  35 W20       29.66R
HARLOWTON      FAIR      45  29  53 W32G40    29.73R
LAUREL           N/A     41  27  56 SW12      29.78R
ROUNDUP          N/A     52  25  35 W22       29.65R
$$

REGIONAL REPORTS...DAKOTAS

CITY           SKY/WX    TMP DP  RH WIND       PRES   REMARKS
WILLISTON      CLOUDY    36  30  79 NW10      29.65R WCI  28
BISMARCK       FAIR      47  33  58 NW13G26   29.60R
GRAND FORKS    CLOUDY    37  30  75 NW18G28   29.54R WCI  27
FARGO          CLOUDY    37  34  89 SW14      29.56R WCI  28
RAPID CITY     FAIR      58  25  28 W14       29.74R
$$

REGIONAL REPORTS...WYOMING/IDAHO/WASHINGTON

CITY           SKY/WX    TMP DP  RH WIND       PRES   REMARKS
GILLETTE       FAIR      41  28  60 SW15      29.78R
SHERIDAN       FAIR      48  26  42 CALM      29.76R
BUFFALO WY     FAIR      43  24  47 VRB3      29.78R
IDAHO FALLS    CLOUDY    31  26  82 CALM      30.16S
BOISE          FAIR      44  27  51 CALM      30.18F
SPOKANE        LGT RAIN  38  37  97 SW12      29.97R WCI  30
$$

REGIONAL REPORTS...ALBERTA

CITY           SKY/WX    TMP DP  RH WIND       PRES   REMARKS
EDMONTON       CLEAR     32  14  47 W10G21    29.75R WCI  24
CALGARY        PTCLDY    32  18  55 W7        29.79R WCI  26
LETHBRIDGE     MOCLDY    27  25  93 SW10      29.87R WCI  17
MEDICINE HAT   MOCLDY    32  25  74 W14G20    29.82R WCI  22
$$

REGIONAL REPORTS...SASKATCHEWAN

CITY           SKY/WX    TMP DP  RH WIND       PRES   REMARKS
SWIFT CURRENT  CLEAR     27  19  74 W15       29.68R WCI  15
REGINA         MOCLDY    32  21  64 W15G24    29.59R WCI  22
SASKATOON      PTCLDY    30  18  59 W18G24    29.58R WCI  18
$$



USA.gov is the U.S. government's official web portal to all federal, state and local government web resources and services.